Time,TemperatureF,DewpointF,PressureIn,WindDirection,WindDirectionDegrees,WindSpeedMPH,WindSpeedGustMPH,Humidity,HourlyPrecipIn,Conditions,Clouds,dailyrainin,SoftwareType,DateUTC
2013-02-26 00:03:00,32.0,27.0,30.27,NNE,12,0.0,1.0,80,0.00,,,0.00,weatherlink.com 1.10,2013-02-26 05:03:00,
2013-02-26 00:18:00,31.6,26.0,30.26,NNE,12,0.0,2.0,80,0.00,,,0.00,weatherlink.com 1.10,2013-02-26 05:18:00,
2013-02-26 00:33:00,31.7,26.0,30.25,NNE,15,1.0,3.0,80,0.00,,,0.00,weatherlink.com 1.10,2013-02-26 05:33:00,
2013-02-26 00:48:00,30.6,26.0,30.25,NNE,15,0.0,2.0,82,0.00,,,0.00,weatherlink.com 1.10,2013-02-26 05:48:00,
2013-02-26 01:03:00,29.8,25.0,30.25,NNE,15,0.0,1.0,83,0.00,,,0.00,weatherlink.com 1.10,2013-02-26 06:03:00,
2013-02-26 01:18:00,29.3,25.0,30.25,NNE,15,0.0,0.0,84,0.00,,,0.00,weatherlink.com 1.10,2013-02-26 06:18:00,
2013-02-26 01:33:00,29.1,25.0,30.26,NNE,15,0.0,0.0,86,0.00,,,0.00,weatherlink.com 1.10,2013-02-26 06:33:00,
2013-02-26 01:48:00,29.3,26.0,30.28,NNE,15,0.0,0.0,87,0.00,,,0.00,weatherlink.com 1.10,2013-02-26 06:48:00,
2013-02-26 02:03:00,30.0,26.0,30.28,NNE,15,0.0,2.0,86,0.00,,,0.00,weatherlink.com 1.10,2013-02-26 07:03:00,
2013-02-26 02:18:00,30.6,26.0,30.29,NNE,14,1.0,1.0,84,0.00,,,0.00,weatherlink.com 1.10,2013-02-26 07:18:00,
2013-02-26 02:33:00,31.0,26.0,30.29,North,9,0.0,2.0,83,0.00,,,0.00,weatherlink.com 1.10,2013-02-26 07:33:00,
2013-02-26 02:48:00,30.7,26.0,30.29,NNE,12,0.0,3.0,82,0.00,,,0.00,weatherlink.com 1.10,2013-02-26 07:48:00,
2013-02-26 03:03:00,30.5,26.0,30.29,North,9,0.0,0.0,82,0.00,,,0.00,weatherlink.com 1.10,2013-02-26 08:03:00,
2013-02-26 03:18:00,29.6,25.0,30.28,North,9,0.0,0.0,84,0.00,,,0.00,weatherlink.com 1.10,2013-02-26 08:18:00,
2013-02-26 03:33:00,28.7,25.0,30.28,North,9,0.0,0.0,85,0.00,,,0.00,weatherlink.com 1.10,2013-02-26 08:33:00,
2013-02-26 03:48:00,27.8,24.0,30.29,North,9,0.0,0.0,86,0.00,,,0.00,weatherlink.com 1.10,2013-02-26 08:48:00,
2013-02-26 04:03:00,27.0,24.0,30.29,North,9,0.0,1.0,88,0.00,,,0.00,weatherlink.com 1.10,2013-02-26 09:03:00,
2013-02-26 04:18:00,26.7,24.0,30.29,North,9,0.0,0.0,89,0.00,,,0.00,weatherlink.com 1.10,2013-02-26 09:18:00,
2013-02-26 04:33:00,26.7,24.0,30.29,North,9,0.0,0.0,90,0.00,,,0.00,weatherlink.com 1.10,2013-02-26 09:33:00,
2013-02-26 04:48:00,26.4,24.0,30.30,North,9,0.0,0.0,91,0.00,,,0.00,weatherlink.com 1.10,2013-02-26 09:48:00,
2013-02-26 05:03:00,26.2,24.0,30.30,North,9,0.0,0.0,91,0.00,,,0.00,weatherlink.com 1.10,2013-02-26 10:03:00,
2013-02-26 05:18:00,26.1,24.0,30.30,North,9,0.0,0.0,91,0.00,,,0.00,weatherlink.com 1.10,2013-02-26 10:18:00,
2013-02-26 05:33:00,26.0,24.0,30.31,North,9,0.0,0.0,91,0.00,,,0.00,weatherlink.com 1.10,2013-02-26 10:33:00,
2013-02-26 05:48:00,25.8,24.0,30.31,North,9,0.0,0.0,91,0.00,,,0.00,weatherlink.com 1.10,2013-02-26 10:48:00,
2013-02-26 06:03:00,25.8,24.0,30.31,North,9,0.0,0.0,92,0.00,,,0.00,weatherlink.com 1.10,2013-02-26 11:03:00,
2013-02-26 06:18:00,25.6,23.0,30.31,North,9,0.0,0.0,91,0.00,,,0.00,weatherlink.com 1.10,2013-02-26 11:18:00,
2013-02-26 06:34:00,25.1,23.0,30.31,North,9,0.0,0.0,91,0.00,,,0.00,weatherlink.com 1.10,2013-02-26 11:34:00,
2013-02-26 06:49:00,24.6,23.0,30.32,North,9,0.0,0.0,92,0.00,,,0.00,weatherlink.com 1.10,2013-02-26 11:49:00,
2013-02-26 07:04:00,24.4,22.0,30.32,North,9,0.0,0.0,92,0.00,,,0.00,weatherlink.com 1.10,2013-02-26 12:04:00,
2013-02-26 07:19:00,24.5,23.0,30.32,North,9,0.0,0.0,93,0.00,,,0.00,weatherlink.com 1.10,2013-02-26 12:19:00,
2013-02-26 07:34:00,25.0,23.0,30.32,North,9,0.0,0.0,93,0.00,,,0.00,weatherlink.com 1.10,2013-02-26 12:34:00,
2013-02-26 07:49:00,25.9,24.0,30.32,North,9,0.0,0.0,93,0.00,,,0.00,weatherlink.com 1.10,2013-02-26 12:49:00,
2013-02-26 08:04:00,27.0,25.0,30.33,North,9,0.0,0.0,93,0.00,,,0.00,weatherlink.com 1.10,2013-02-26 13:04:00,
2013-02-26 08:19:00,28.1,26.0,30.33,North,9,0.0,0.0,91,0.00,,,0.00,weatherlink.com 1.10,2013-02-26 13:19:00,
2013-02-26 08:34:00,29.7,27.0,30.33,NNE,12,0.0,0.0,88,0.00,,,0.00,weatherlink.com 1.10,2013-02-26 13:34:00,
2013-02-26 08:49:00,30.9,27.0,30.32,NNE,12,0.0,0.0,86,0.00,,,0.00,weatherlink.com 1.10,2013-02-26 13:49:00,
2013-02-26 09:04:00,32.2,28.0,30.32,NNE,12,0.0,0.0,84,0.00,,,0.00,weatherlink.com 1.10,2013-02-26 14:04:00,
2013-02-26 09:19:00,33.9,29.0,30.32,NNW,346,1.0,2.0,81,0.00,,,0.00,weatherlink.com 1.10,2013-02-26 14:19:00,
2013-02-26 09:34:00,35.5,29.0,30.32,South,188,1.0,2.0,78,0.00,,,0.00,weatherlink.com 1.10,2013-02-26 14:34:00,
2013-02-26 09:49:00,36.5,30.0,30.32,SSW,192,2.0,5.0,77,0.00,,,0.00,weatherlink.com 1.10,2013-02-26 14:49:00,
2013-02-26 10:04:00,37.5,30.0,30.32,SSW,199,2.0,4.0,73,0.00,,,0.00,weatherlink.com 1.10,2013-02-26 15:04:00,
2013-02-26 10:19:00,38.9,30.0,30.32,South,178,1.0,6.0,71,0.00,,,0.00,weatherlink.com 1.10,2013-02-26 15:19:00,
2013-02-26 10:34:00,40.7,32.0,30.32,SSE,147,3.0,4.0,70,0.00,,,0.00,weatherlink.com 1.10,2013-02-26 15:34:00,
2013-02-26 10:49:00,40.6,30.0,30.32,SSE,163,4.0,8.0,67,0.00,,,0.00,weatherlink.com 1.10,2013-02-26 15:49:00,
2013-02-26 11:04:00,41.5,30.0,30.31,South,171,4.0,11.0,63,0.00,,,0.00,weatherlink.com 1.10,2013-02-26 16:04:00,
2013-02-26 11:19:00,42.1,30.0,30.30,SE,131,0.0,10.0,62,0.00,,,0.00,weatherlink.com 1.10,2013-02-26 16:19:00,
2013-02-26 11:34:00,43.3,29.0,30.30,SE,128,1.0,8.0,58,0.00,,,0.00,weatherlink.com 1.10,2013-02-26 16:34:00,
2013-02-26 11:49:00,43.5,29.0,30.29,South,183,1.0,7.0,58,0.00,,,0.00,weatherlink.com 1.10,2013-02-26 16:49:00,
2013-02-26 12:04:00,43.8,29.0,30.29,SE,144,1.0,9.0,56,0.00,,,0.00,weatherlink.com 1.10,2013-02-26 17:04:00,
2013-02-26 12:19:00,43.5,28.0,30.29,South,171,6.0,12.0,55,0.00,,,0.00,weatherlink.com 1.10,2013-02-26 17:19:00,
2013-02-26 12:34:00,43.8,29.0,30.28,ESE,111,4.0,6.0,56,0.00,,,0.00,weatherlink.com 1.10,2013-02-26 17:34:00,
2013-02-26 12:49:00,43.6,30.0,30.28,ESE,107,1.0,6.0,58,0.00,,,0.00,weatherlink.com 1.10,2013-02-26 17:49:00,
2013-02-26 13:04:00,43.5,29.0,30.26,SE,138,0.0,10.0,57,0.00,,,0.00,weatherlink.com 1.10,2013-02-26 18:04:00,
2013-02-26 13:19:00,43.6,28.0,30.25,East,92,2.0,10.0,55,0.00,,,0.00,weatherlink.com 1.10,2013-02-26 18:19:00,
2013-02-26 13:34:00,44.2,29.0,30.25,ESE,122,2.0,8.0,56,0.00,,,0.00,weatherlink.com 1.10,2013-02-26 18:34:00,
2013-02-26 13:49:00,44.2,28.0,30.24,SSE,148,6.0,9.0,53,0.00,,,0.00,weatherlink.com 1.10,2013-02-26 18:49:00,
2013-02-26 14:04:00,44.2,29.0,30.23,SSE,164,0.0,11.0,55,0.00,,,0.00,weatherlink.com 1.10,2013-02-26 19:04:00,
2013-02-26 14:19:00,44.2,28.0,30.21,SE,128,0.0,8.0,53,0.00,,,0.00,weatherlink.com 1.10,2013-02-26 19:19:00,
2013-02-26 14:35:00,44.7,28.0,30.21,South,175,3.0,7.0,52,0.00,,,0.00,weatherlink.com 1.10,2013-02-26 19:35:00,
2013-02-26 14:50:00,43.5,27.0,30.21,SE,146,2.0,8.0,53,0.00,,,0.00,weatherlink.com 1.10,2013-02-26 19:50:00,
2013-02-26 15:05:00,43.5,28.0,30.21,South,173,4.0,9.0,54,0.00,,,0.00,weatherlink.com 1.10,2013-02-26 20:05:00,
2013-02-26 15:20:00,43.1,28.0,30.21,ESE,105,2.0,10.0,55,0.00,,,0.00,weatherlink.com 1.10,2013-02-26 20:20:00,
2013-02-26 15:35:00,42.3,27.0,30.21,ESE,116,2.0,10.0,56,0.00,,,0.00,weatherlink.com 1.10,2013-02-26 20:35:00,
2013-02-26 15:50:00,41.8,27.0,30.21,NNW,334,1.0,13.0,56,0.00,,,0.00,weatherlink.com 1.10,2013-02-26 20:50:00,
2013-02-26 16:05:00,41.3,27.0,30.20,SSE,154,4.0,6.0,58,0.00,,,0.00,weatherlink.com 1.10,2013-02-26 21:05:00,
2013-02-26 16:20:00,41.0,27.0,30.20,SSE,162,5.0,6.0,57,0.00,,,0.00,weatherlink.com 1.10,2013-02-26 21:20:00,
2013-02-26 16:35:00,40.6,27.0,30.20,ESE,123,2.0,9.0,58,0.00,,,0.00,weatherlink.com 1.10,2013-02-26 21:35:00,
2013-02-26 16:50:00,40.3,26.0,30.19,ESE,118,5.0,11.0,58,0.00,,,0.00,weatherlink.com 1.10,2013-02-26 21:50:00,
2013-02-26 17:05:00,39.9,26.0,30.19,East,88,5.0,15.0,59,0.00,,,0.00,weatherlink.com 1.10,2013-02-26 22:05:00,
2013-02-26 17:20:00,39.3,27.0,30.19,SE,130,1.0,7.0,61,0.00,,,0.00,weatherlink.com 1.10,2013-02-26 22:20:00,
2013-02-26 17:50:00,38.2,26.0,30.17,East,80,8.0,9.0,63,0.00,,,0.00,weatherlink.com 1.10,2013-02-26 22:50:00,
2013-02-26 18:05:00,37.9,27.0,30.17,East,101,1.0,10.0,64,0.00,,,0.00,weatherlink.com 1.10,2013-02-26 23:05:00,
2013-02-26 18:20:00,37.5,27.0,30.18,East,91,5.0,5.0,66,0.00,,,0.00,weatherlink.com 1.10,2013-02-26 23:20:00,
2013-02-26 18:35:00,37.3,27.0,30.19,SSE,157,6.0,6.0,67,0.00,,,0.00,weatherlink.com 1.10,2013-02-26 23:35:00,
2013-02-26 18:50:00,37.3,27.0,30.19,East,93,1.0,6.0,67,0.00,,,0.00,weatherlink.com 1.10,2013-02-26 23:50:00,
2013-02-26 19:05:00,37.2,27.0,30.19,East,100,0.0,5.0,67,0.00,,,0.00,weatherlink.com 1.10,2013-02-27 00:05:00,
2013-02-26 19:20:00,37.0,27.0,30.18,SE,137,0.0,4.0,68,0.00,,,0.00,weatherlink.com 1.10,2013-02-27 00:20:00,
2013-02-26 19:35:00,36.7,27.0,30.18,ESE,120,2.0,9.0,69,0.00,,,0.00,weatherlink.com 1.10,2013-02-27 00:35:00,
2013-02-26 19:50:00,36.7,27.0,30.18,SE,136,3.0,7.0,69,0.00,,,0.00,weatherlink.com 1.10,2013-02-27 00:50:00,
2013-02-26 20:05:00,36.6,28.0,30.17,SE,125,0.0,4.0,70,0.00,,,0.00,weatherlink.com 1.10,2013-02-27 01:05:00,
2013-02-26 20:20:00,36.4,27.0,30.16,SE,129,1.0,5.0,70,0.00,,,0.00,weatherlink.com 1.10,2013-02-27 01:20:00,
2013-02-26 20:50:00,36.0,27.0,30.15,ESE,119,0.0,4.0,71,0.00,,,0.00,weatherlink.com 1.10,2013-02-27 01:50:00,
2013-02-26 21:05:00,35.9,28.0,30.14,SSE,147,0.0,3.0,72,0.00,,,0.00,weatherlink.com 1.10,2013-02-27 02:05:00,
2013-02-26 21:20:00,35.8,28.0,30.12,ESE,106,1.0,3.0,73,0.00,,,0.00,weatherlink.com 1.10,2013-02-27 02:20:00,
2013-02-26 21:35:00,35.5,28.0,30.12,ESE,115,0.0,3.0,73,0.00,,,0.00,weatherlink.com 1.10,2013-02-27 02:35:00,
2013-02-26 21:50:00,35.3,28.0,30.11,ESE,121,0.0,2.0,74,0.00,,,0.00,weatherlink.com 1.10,2013-02-27 02:50:00,
2013-02-26 22:05:00,35.3,28.0,30.10,ESE,121,0.0,1.0,74,0.00,,,0.00,weatherlink.com 1.10,2013-02-27 03:05:00,
2013-02-26 22:20:00,35.2,28.0,30.09,ESE,119,0.0,1.0,74,0.00,,,0.00,weatherlink.com 1.10,2013-02-27 03:20:00,
2013-02-26 22:35:00,35.3,27.0,30.08,SE,133,1.0,4.0,73,0.00,,,0.00,weatherlink.com 1.10,2013-02-27 03:35:00,
2013-02-26 22:50:00,35.4,28.0,30.08,SSE,161,2.0,3.0,73,0.00,,,0.00,weatherlink.com 1.10,2013-02-27 03:50:00,
2013-02-26 23:05:00,35.5,28.0,30.08,ESE,107,1.0,2.0,73,0.00,,,0.00,weatherlink.com 1.10,2013-02-27 04:05:00,
2013-02-26 23:20:00,35.3,28.0,30.07,SSE,157,0.0,5.0,74,0.00,,,0.00,weatherlink.com 1.10,2013-02-27 04:20:00,
2013-02-26 23:35:00,34.2,28.0,30.07,SE,128,1.0,6.0,78,0.00,,,0.00,weatherlink.com 1.10,2013-02-27 04:35:00,
2013-02-26 23:50:00,33.8,28.0,30.07,SE,127,0.0,3.0,79,0.00,,,0.00,weatherlink.com 1.10,2013-02-27 04:50:00,